Temperature
15 15 16 16 14 12 13 14 15 16 15 16 16 16 14 13 14 14 13 13 13 13 13 13 13 13 13 14 14 14 14 14 14 14 14 14 14 14 14 14 14 14 14 14 14 14 14 14 14
15 15 16 15 12 12 13 13 14 15 16 16 16 15 13 12 12 12 12 13 13 13 13 13 13 13 13 13 13 13 13 13 14 13 14 14 14 14 14 13 14 14 14 14 14 14 14 14 14
15 15 15 12 12 12 14 14 14 15 16 16 14 13 12 11 12 12 12 12 13 13 13 13 13 13 13 13 13 13 13 13 13 13 13 13 13 13 13 13 13 13 13 14 14 13 13 13 13
15 15 14 11 12 13 14 14 14 15 16 15 14 11 11 11 11 12 12 12 12 12 13 13 13 13 13 13 13 13 13 13 13 13 13 13 13 13 13 13 13 13 13 13 13 13 13 13 13
14 14 11 11 12 13 13 14 15 14 14 14 13 10 10 11 11 12 12 12 12 12 12 12 12 12 12 12 12 12 12 12 12 12 12 12 12 13 13 13 13 13 13 13 13 13 13 13 13
14 12 10 11 12 13 13 15 15 14 13 13 12 10 10 10 11 11 11 11 11 12 12 12 12 12 12 12 12 12 12 12 12 12 12 12 12 12 12 12 12 12 12 12 12 12 12 12 12
13 10 10 11 12 13 13 14 13 12 12 12 12 10 9 10 10 11 11 11 11 11 11 12 12 12 12 12 12 12 12 12 12 12 12 12 12 12 12 12 12 12 12 12 12 12 12 12 12
13 10 11 11 12 12 13 13 13 12 12 12 12 10 9 10 10 10 10 10 11 11 11 11 11 11 11 11 11 11 11 11 11 11 11 11 11 11 11 11 11 11 12 12 12 12 12 11 11
13 9 10 11 11 12 12 12 12 12 12 11 11 11 11 10 10 10 10 10 10 10 10 11 11 11 11 11 11 11 11 11 11 11 11 11 11 11 11 11 11 11 11 11 11 11 11 11 11
12 9 10 11 11 11 11 11 11 11 10 10 10 10 10 10 10 10 10 10 10 10 10 10 10 11 11 11 10 10 10 10 11 11 11 11 11 11 11 11 10 10 10 11 11 11 11 11 11
10 9 10 11 11 11 11 10 11 10 9 9 9 9 9 9 9 9 9 9 9 9 9 10 10 10 10 10 10 10 10 10 10 10 10 10 10 10 10 10 10 10 10 10 10 10 10 10 10
9 9 10 10 11 11 10 9 9 9 9 10 10 10 9 9 9 9 9 9 9 9 9 9 9 9 9 10 10 9 9 9 10 10 10 10 10 10 10 10 10 10 9 9 9 9 9 10 10
9 9 9 9 10 10 9 8 8 8 8 9 9 9 9 8 8 8 8 8 8 8 9 9 9 9 9 9 9 9 9 9 9 9 9 9 9 9 9 9 9 9 9 9 9 9 9 9 9
9 9 9 9 9 9 8 7 8 7 8 8 8 7 7 8 8 8 8 8 8 8 8 8 8 8 8 8 8 8 8 8 8 8 9 8 8 8 8 8 8 9 8 8 8 8 8 8 8
9 8 8 8 8 8 8 7 6 7 7 7 6 6 7 7 7 7 8 8 8 8 8 8 8 8 8 8 8 8 8 8 8 8 8 8 8 8 8 8 8 8 8 8 8 8 8 8 8
8 7 7 8 8 8 8 7 6 7 6 5 5 5 6 6 6 7 7 7 7 7 7 7 7 7 7 7 7 7 7 7 7 7 7 7 7 7 7 7 7 7 7 7 7 7 7 7 7
6 6 7 7 7 7 7 6 6 6 6 4 4 4 5 5 5 6 6 6 6 6 7 7 7 7 7 7 7 7 7 7 7 7 7 7 7 7 7 7 7 7 7 7 7 7 7 7 6
6 6 7 7 6 6 6 5 5 5 5 4 4 4 4 4 5 5 5 5 6 6 6 6 6 6 6 6 6 6 6 6 6 6 6 6 6 6 6 6 6 6 6 6 6 6 6 6 6
6 6 6 6 6 6 5 5 4 4 3 3 3 3 3 3 4 4 4 5 5 5 5 5 6 6 5 5 5 5 6 6 6 5 5 5 5 5 5 5 6 5 6 5 5 5 5 5 5
6 6 5 5 5 5 4 4 4 3 2 2 2 2 2 3 3 3 4 4 4 4 4 5 5 5 5 5 5 5 5 5 5 5 5 5 5 5 5 5 5 5 5 5 5 5 5 5 5
5 5 5 4 4 4 4 4 3 2 2 2 2 2 2 2 2 2 3 3 3 3 4 4 4 4 4 4 4 4 4 4 4 4 4 4 4 4 4 4 4 4 4 4 4 4 4 4 4
5 5 4 4 3 3 4 4 3 2 1 1 1 1 1 1 1 2 2 2 2 3 3 3 3 3 3 3 3 3 4 4 4 4 3 3 3 3 4 3 3 4 4 4 4 4 4 3 4
4 4 4 4 3 2 2 3 3 1 1 1 -0 0 1 1 1 1 1 1 2 2 2 2 2 2 3 3 3 3 3 3 3 3 3 3 3 3 3 3 3 3 3 3 3 3 3 3 3
3 3 3 2 2 3 2 2 3 1 1 1 -0 -0 0 0 1 1 1 1 1 1 1 2 2 2 2 2 2 2 2 2 2 2 2 2 2 2 2 2 2 2 2 2 3 3 3 2 2
3 3 3 3 2 3 1 2 2 1 -0 -0 -0 -0 0 0 0 0 0 1 1 1 1 1 1 1 1 1 1 1 1 1 1 1 1 1 1 2 2 2 1 2 2 2 2 2 2 2 2
2 3 3 3 3 2 1 1 1 -0 -1 -0 -0 0 -0 -0 -0 -0 -0 0 0 0 0 0 1 1 1 1 0 0 0 0 0 0 0 1 1 1 1 1 1 1 1 1 1 1 1 1 1
2 1 2 1 1 1 1 -0 0 -1 -1 -2 -1 -1 -1 -1 -0 -0 -0 -0 -0 -0 -0 -0 -0 -0 -0 -0 -0 -1 -1 -1 -1 -0 -0 -0 0 0 0 0 0 0 0 0 0 0 1 1 1
1 1 -0 1 2 2 1 -0 1 -0 -1 -2 -2 -2 -2 -1 -1 -1 -1 -1 -1 -1 -1 -1 -1 -1 -1 -1 -1 -1 -1 -1 -1 -1 -1 -1 -1 -1 -1 -1 -0 -0 -0 -0 -0 -0 -0 -0 -0
0 0 -0 -1 -0 1 1 1 0 -0 -1 -2 -2 -2 -2 -2 -2 -1 -1 -1 -1 -1 -2 -2 -2 -2 -2 -2 -2 -2 -2 -2 -2 -2 -2 -2 -2 -1 -1 -1 -1 -1 -1 -1 -1 -1 -1 -1 -1
-0 -0 -1 0 -0 -1 -1 1 -1 -2 -2 -2 -2 -2 -2 -2 -2 -2 -2 -2 -2 -2 -2 -2 -2 -2 -2 -2 -2 -2 -2 -2 -3 -3 -2 -2 -2 -2 -2 -2 -2 -2 -2 -2 -1 -1 -1 -1 -1
Wind_Speed
9 8 2 4 5 3 2 4 3 1 0 0 2 6 8 5 3 5 2 3 5 4 5 7 9 11 12 13 13 13 13 14 14 14 14 15 15 15 15 15 15 15 15 15 15 15 16 16 15
5 3 4 4 4 2 4 4 3 3 3 2 4 5 7 5 3 5 2 3 6 6 6 7 10 12 12 13 13 13 13 13 14 14 14 14 15 15 14 14 15 15 14 14 15 14 15 15 15
4 2 4 4 4 6 5 4 5 2 1 2 4 6 5 4 3 3 2 5 7 7 7 9 12 12 12 12 13 12 13 13 13 13 13 13 13 14 14 14 14 14 14 14 14 14 14 14 14
3 4 4 3 4 5 5 4 3 3 2 4 5 6 4 3 1 2 5 7 8 7 8 10 12 12 12 12 12 12 12 12 12 12 12 12 13 13 13 13 13 13 13 13 13 13 13 13 12
4 4 3 1 4 3 3 2 2 2 2 3 4 5 3 4 4 6 6 8 8 7 9 10 12 12 12 11 12 12 12 12 12 12 11 11 12 12 12 12 12 12 12 13 13 12 12 12 12
4 4 4 4 5 3 2 1 1 2 2 2 4 5 2 1 5 6 7 7 8 8 8 9 11 11 11 11 11 12 12 12 12 12 11 11 11 11 11 12 12 11 11 12 12 12 12 12 11
4 4 4 5 4 3 2 0 2 2 2 1 3 6 3 1 3 6 7 8 9 9 9 9 9 10 10 11 11 11 11 11 11 11 11 11 11 10 10 11 11 11 11 11 11 11 11 11 11
4 4 2 3 4 4 1 1 1 1 1 2 3 7 5 3 4 7 7 8 8 8 8 8 8 9 10 10 10 11 11 11 10 11 11 11 10 10 10 10 10 10 10 10 10 10 10 10 10
3 3 3 4 4 3 0 2 1 2 4 4 3 2 4 9 8 9 7 6 5 5 6 6 7 8 9 9 9 10 10 10 10 10 11 11 10 10 9 9 10 9 9 9 9 9 9 9 9
4 4 5 2 2 2 1 2 0 3 3 3 4 5 8 9 9 8 6 5 4 3 3 4 5 6 8 8 8 8 9 9 9 9 9 9 9 9 8 9 9 9 9 9 8 8 9 9 8
3 5 3 1 0 1 1 2 1 3 1 2 4 7 9 8 8 7 5 4 3 3 3 3 4 6 6 6 7 7 8 8 8 8 8 9 9 8 8 8 8 9 8 8 8 8 8 8 7
2 1 1 1 1 1 1 1 2 1 2 2 6 9 9 8 7 6 5 4 3 3 3 3 4 5 6 6 6 6 6 6 6 6 7 8 7 6 6 6 6 6 6 6 6 6 7 7 7
1 1 1 2 3 3 4 2 1 1 1 6 9 9 8 7 5 4 4 4 4 4 3 2 4 4 5 5 5 5 5 5 6 6 6 7 6 4 5 5 5 5 5 5 5 5 5 6 6
2 1 0 1 1 1 2 1 1 1 3 6 8 7 6 5 5 4 4 3 3 3 3 2 3 4 5 5 4 4 4 5 5 5 5 6 6 5 4 4 4 4 3 3 4 4 4 4 5
2 2 2 1 1 1 3 2 3 3 5 6 5 5 5 3 4 4 3 3 3 3 3 3 3 4 4 4 4 4 4 5 5 4 5 5 6 5 4 3 3 2 3 3 4 4 4 3 4
3 2 1 3 1 2 4 5 4 4 6 5 4 3 4 3 3 2 2 2 3 4 3 2 3 4 3 4 4 4 4 4 4 4 4 5 5 5 5 3 2 2 3 3 3 2 2 2 2
1 2 3 3 1 2 4 6 3 4 6 6 5 4 3 3 1 1 2 3 3 3 3 3 3 3 3 3 3 4 4 4 4 5 4 4 4 4 4 3 2 2 3 2 2 1 1 2 1
4 4 3 4 2 1 4 6 4 3 5 6 5 4 3 3 2 1 2 2 3 3 3 3 2 2 3 3 3 3 4 3 3 4 4 4 3 3 4 3 3 3 2 2 1 1 1 1 2
4 4 4 4 1 1 5 7 7 4 4 4 4 4 4 4 2 1 2 2 3 2 3 3 2 2 2 2 1 1 1 1 2 3 3 3 3 3 3 2 2 2 2 1 1 1 1 1 1
3 3 3 3 2 1 4 7 6 4 5 5 6 6 5 3 1 1 1 2 2 1 1 2 2 2 1 1 1 1 1 1 1 2 2 3 2 2 2 2 1 1 1 1 1 1 1 0 1
3 4 4 3 3 2 2 5 4 2 1 2 3 4 4 5 4 3 2 1 1 1 1 1 1 1 1 2 2 2 2 2 1 1 1 2 1 2 2 1 1 1 1 2 2 2 2 2 1
5 2 2 2 1 3 1 4 5 3 2 3 3 4 4 3 3 3 2 1 1 1 1 1 1 1 1 2 2 2 2 1 1 1 1 1 1 2 2 2 0 1 1 1 1 1 1 2 2
3 0 1 1 2 3 2 3 7 1 4 5 6 5 4 4 4 4 3 2 1 0 1 1 1 1 1 2 2 2 1 1 1 1 1 1 1 1 1 1 1 0 0 1 1 1 1 2 2
2 3 3 2 2 4 5 6 6 4 5 4 5 6 5 4 4 3 2 2 1 1 1 1 1 0 1 2 1 2 1 1 1 1 1 2 1 1 1 1 1 1 1 1 2 2 2 2 2
3 4 2 3 2 6 2 5 7 4 3 4 5 6 6 5 4 3 3 2 1 0 0 0 1 0 0 1 1 1 1 1 2 2 2 2 2 1 1 2 1 2 2 2 2 2 2 2 3
3 5 5 4 5 5 1 6 5 3 2 1 2 3 4 4 4 4 4 3 2 1 1 1 1 1 0 1 1 1 1 1 2 2 2 2 2 2 2 3 2 2 3 2 2 2 3 2 3
3 3 3 3 1 3 5 5 6 1 1 0 1 2 2 3 3 3 2 2 2 2 1 1 1 1 1 1 1 1 1 1 2 2 2 2 2 2 2 2 3 3 3 3 3 2 3 3 3
2 5 4 3 3 5 5 5 5 5 5 3 3 3 2 1 1 1 1 1 1 2 1 1 1 1 1 1 1 1 1 1 2 1 2 3 3 3 3 3 3 3 3 3 3 3 3 3 3
3 3 3 3 3 4 4 6 4 6 5 5 5 4 3 3 2 1 1 1 1 1 0 0 1 1 1 1 1 1 1 1 2 2 3 3 3 3 3 3 3 3 3 3 3 4 3 4 4
4 5 6 4 5 4 4 7 2 2 2 3 3 3 2 2 1 1 1 0 0 0 0 0 0 1 1 2 2 2 2 2 2 3 3 3 3 4 3 3 3 4 4 3 4 5 4 4 5
Wind_Direction
331 340 48 57 64 67 216 248 231 226 114 173 97 100 110 103 117 143 139 102 104 115 119 120 113 110 105 100 96 94 91 89 87 86 84 84 83 82 82 81 79 77 75 74 74 74 74 73 74
341 1 58 66 107 156 248 248 225 231 188 139 71 81 85 80 72 102 103 94 103 105 105 113 112 110 107 104 101 97 95 92 89 85 84 83 83 82 82 81 79 77 76 75 74 74 73 71 70
336 52 86 89 143 185 203 214 202 230 189 106 73 52 80 90 92 103 111 113 100 92 97 105 109 107 106 106 104 99 96 94 91 88 85 84 83 81 81 81 79 78 77 77 76 75 72 69 67
56 56 63 102 202 218 202 205 170 134 60 64 100 75 65 32 66 114 108 99 97 83 93 106 104 105 104 104 104 102 98 96 94 91 88 87 85 83 81 80 80 79 79 79 77 75 70 65 65
62 85 95 180 227 244 236 233 169 118 80 52 97 101 75 6 67 100 98 92 95 83 87 101 103 103 102 105 104 104 100 97 95 92 90 89 87 86 85 83 82 80 79 79 77 74 71 67 66
62 79 127 202 224 239 263 259 119 89 84 64 92 107 123 67 85 95 90 86 85 85 82 89 99 100 101 101 103 102 100 97 94 93 92 90 90 87 87 85 84 83 81 79 77 72 69 67 67
112 116 172 193 203 238 256 40 108 125 97 69 118 118 140 113 101 103 93 85 82 80 76 76 83 89 94 96 98 99 100 100 97 94 92 90 91 91 90 86 86 84 80 78 76 72 67 66 65
129 120 165 192 186 224 281 83 91 152 160 23 89 136 173 185 127 102 89 81 80 73 70 71 77 84 88 91 95 95 97 99 98 97 93 90 91 90 88 85 86 85 82 78 75 72 67 65 64
96 101 193 206 190 211 25 89 15 61 90 52 44 107 142 132 120 105 92 78 75 68 62 68 73 77 86 94 95 94 95 98 96 94 94 90 84 82 84 84 86 85 80 75 71 68 65 64 65
100 163 207 226 208 171 66 76 69 83 66 66 54 66 108 118 119 119 119 119 108 89 67 67 73 77 81 89 89 87 86 88 90 90 91 89 86 81 80 84 83 81 77 72 64 60 61 61 63
132 175 190 266 281 108 54 16 357 128 165 195 168 147 129 117 118 123 124 129 133 119 79 61 76 82 84 87 89 86 83 81 84 86 89 92 87 81 76 73 72 71 71 64 61 61 60 62 64
133 204 178 273 344 62 87 58 19 59 209 137 133 136 133 132 139 142 140 129 118 105 79 62 68 81 84 88 87 88 86 83 80 85 93 95 88 80 76 72 69 69 67 61 58 58 59 63 65
167 158 49 62 56 81 91 77 121 333 67 97 105 114 128 135 137 132 126 118 112 104 93 71 73 79 84 85 84 82 82 86 90 89 94 100 97 93 87 81 74 72 72 69 61 61 62 65 65
168 151 330 360 33 49 107 20 97 233 115 101 111 122 127 132 128 114 114 116 121 122 115 88 83 82 85 84 85 87 89 88 85 83 92 104 104 106 104 92 80 72 78 84 77 71 71 66 69
99 65 353 320 176 166 106 325 233 196 132 120 121 127 124 124 119 131 149 146 144 137 121 105 101 86 87 85 88 92 96 96 88 83 85 98 104 108 110 104 85 74 84 90 83 73 71 65 62
72 85 272 278 165 172 149 247 247 169 145 151 153 144 142 141 137 139 131 132 128 122 117 106 109 96 90 88 93 95 93 90 85 87 82 88 99 107 107 97 89 90 87 85 93 87 89 74 72
61 203 235 267 219 171 182 232 242 171 157 170 174 169 164 154 137 141 127 131 132 130 123 114 95 103 102 91 92 87 87 81 77 73 70 71 83 104 108 98 91 104 90 81 98 94 124 120 109
212 217 230 233 244 175 217 239 247 196 178 185 183 179 171 172 196 183 130 120 119 120 117 118 104 98 103 101 86 75 64 62 73 72 63 59 63 90 105 101 101 101 89 76 82 121 98 131 135
189 197 239 249 262 223 236 255 257 217 194 197 191 189 189 196 187 114 103 97 94 99 108 114 108 90 100 121 136 122 100 51 52 64 62 62 55 58 86 82 98 102 104 111 94 121 125 86 101
187 221 249 285 324 267 266 269 266 228 209 200 194 194 197 192 170 134 112 109 110 120 134 138 139 128 115 137 152 161 153 136 70 54 45 54 58 47 61 76 87 80 88 98 108 118 148 167 139
222 210 227 251 322 304 308 293 256 247 187 175 191 188 192 186 183 178 154 130 122 145 178 172 172 150 128 112 107 91 68 44 30 18 14 26 55 69 43 54 80 88 119 185 204 187 166 198 247
236 213 199 216 353 282 221 273 265 230 243 226 210 193 195 191 178 168 159 144 158 210 195 155 150 131 115 116 117 130 146 203 245 253 306 359 28 48 46 33 69 92 104 174 218 192 187 173 213
211 168 172 186 186 283 247 225 279 251 243 241 224 214 204 194 181 176 176 178 175 108 104 151 147 126 105 100 128 146 172 217 291 331 309 299 351 16 34 28 354 313 216 209 225 223 195 191 206
126 57 43 63 88 266 226 200 271 234 229 237 219 209 203 195 184 177 173 150 125 68 66 69 103 127 115 119 115 138 185 222 261 294 280 276 286 349 1 332 334 292 275 253 242 231 223 220 222
85 97 26 340 287 251 206 205 252 252 240 218 212 201 195 192 184 173 167 160 161 123 134 151 128 175 167 149 169 201 212 218 234 246 247 267 276 271 275 293 295 298 282 267 266 244 244 239 227
190 156 172 213 236 275 262 230 251 262 281 252 199 181 173 185 188 185 187 186 193 202 191 201 218 255 217 191 232 271 276 221 244 259 264 256 265 270 279 261 262 271 277 269 266 257 251 247 243
153 192 171 152 247 267 262 277 291 261 272 175 160 151 176 187 191 197 190 186 194 203 212 216 234 282 285 251 272 264 289 269 268 281 283 284 302 305 304 284 267 267 276 271 254 254 256 252 248
157 150 119 151 204 252 276 263 250 248 238 226 210 195 193 163 156 184 204 208 205 211 222 224 244 271 307 298 286 296 302 304 303 298 291 294 303 316 307 301 289 277 272 268 248 254 253 243 253
156 157 159 170 187 196 260 265 237 217 215 210 212 198 191 188 193 202 225 234 216 207 192 224 281 331 340 324 304 308 311 323 324 299 296 299 303 303 293 288 286 280 271 264 249 249 245 240 249
188 185 164 184 227 207 222 267 284 215 215 186 188 191 187 192 189 190 223 238 36 360 325 252 329 329 315 312 310 299 314 324 309 302 305 309 302 299 295 294 286 283 281 273 251 251 249 237 242
Height
1514 1515 1517 1519 1523 1532 1533 1527 1521 1519 1519 1519 1518 1519 1521 1526 1530 1537 1535 1534 1536 1538 1539 1541 1542 1543 1544 1544 1544 1545 1545 1546 1546 1547 1547 1547 1548 1548 1548 1548 1548 1549 1549 1549 1549 1549 1549 1549 1549
1514 1515 1518 1519 1527 1537 1533 1524 1521 1518 1518 1518 1518 1520 1522 1526 1528 1530 1531 1534 1536 1538 1539 1540 1542 1543 1544 1544 1545 1545 1546 1546 1547 1547 1548 1548 1549 1549 1549 1549 1549 1549 1550 1550 1550 1550 1550 1550 1550
1513 1515 1518 1521 1528 1531 1527 1520 1518 1516 1517 1517 1519 1521 1524 1527 1529 1530 1531 1534 1536 1538 1539 1540 1542 1543 1543 1544 1545 1546 1546 1546 1547 1547 1548 1549 1549 1549 1550 1550 1550 1550 1550 1551 1551 1551 1551 1551 1551
1514 1516 1518 1524 1525 1522 1519 1516 1515 1516 1517 1517 1519 1523 1526 1529 1530 1530 1532 1534 1536 1537 1539 1540 1542 1543 1543 1544 1545 1545 1546 1546 1547 1547 1548 1549 1549 1549 1550 1550 1550 1551 1551 1551 1551 1551 1552 1552 1552
1513 1515 1521 1526 1523 1519 1516 1515 1515 1516 1517 1518 1519 1523 1527 1529 1529 1530 1532 1534 1535 1537 1539 1540 1541 1542 1543 1544 1544 1545 1546 1546 1547 1547 1548 1548 1549 1549 1550 1550 1550 1551 1551 1551 1551 1552 1552 1552 1552
1513 1515 1525 1527 1522 1517 1516 1515 1515 1516 1518 1519 1520 1524 1527 1529 1529 1530 1532 1533 1535 1536 1538 1540 1541 1542 1543 1543 1544 1544 1545 1546 1546 1547 1547 1548 1548 1549 1549 1550 1550 1550 1551 1551 1551 1551 1552 1552 1553
1514 1518 1522 1522 1521 1518 1516 1515 1516 1517 1518 1520 1520 1524 1526 1528 1529 1530 1532 1533 1535 1536 1538 1539 1540 1541 1542 1543 1543 1544 1544 1545 1546 1547 1547 1547 1548 1548 1548 1549 1549 1550 1550 1550 1551 1551 1551 1552 1552
1512 1517 1519 1521 1520 1518 1515 1515 1516 1517 1518 1520 1520 1522 1525 1527 1528 1530 1532 1533 1534 1536 1537 1538 1540 1541 1541 1542 1543 1543 1544 1544 1545 1546 1546 1546 1547 1547 1548 1548 1548 1549 1549 1550 1550 1551 1551 1552 1552
1512 1520 1521 1519 1518 1516 1515 1515 1517 1517 1518 1519 1520 1521 1523 1525 1527 1529 1531 1532 1534 1535 1536 1538 1538 1539 1540 1541 1542 1543 1543 1544 1544 1545 1545 1546 1546 1546 1547 1547 1547 1548 1548 1549 1549 1549 1550 1551 1551
1512 1519 1517 1515 1514 1514 1514 1515 1516 1517 1518 1519 1520 1521 1522 1524 1526 1527 1529 1530 1532 1533 1535 1536 1537 1538 1539 1540 1541 1541 1542 1542 1543 1544 1544 1545 1545 1545 1546 1546 1547 1547 1547 1548 1548 1548 1549 1549 1550
1511 1515 1514 1513 1513 1513 1514 1515 1516 1517 1519 1518 1518 1519 1521 1523 1524 1526 1527 1529 1531 1532 1533 1535 1536 1537 1538 1538 1539 1540 1541 1541 1542 1543 1543 1544 1544 1544 1545 1545 1545 1546 1546 1546 1547 1547 1548 1548 1549
1512 1513 1512 1513 1513 1513 1514 1516 1517 1517 1518 1518 1518 1519 1520 1521 1523 1524 1526 1528 1529 1530 1532 1533 1534 1535 1536 1537 1538 1538 1539 1540 1540 1541 1542 1542 1543 1543 1543 1544 1544 1544 1545 1545 1546 1546 1546 1547 1548
1511 1512 1513 1513 1513 1514 1515 1516 1517 1517 1518 1517 1518 1518 1519 1520 1522 1524 1525 1527 1528 1529 1530 1531 1533 1534 1535 1536 1536 1537 1538 1538 1539 1540 1540 1541 1541 1542 1542 1542 1543 1543 1543 1544 1544 1545 1545 1546 1546
1511 1512 1513 1513 1513 1514 1515 1516 1517 1517 1517 1517 1517 1518 1519 1520 1521 1522 1523 1525 1526 1527 1528 1530 1531 1532 1533 1534 1535 1535 1536 1537 1537 1538 1538 1539 1540 1540 1540 1541 1541 1541 1542 1542 1543 1543 1544 1544 1545
1511 1513 1513 1513 1512 1514 1515 1517 1516 1516 1516 1516 1517 1517 1518 1519 1519 1520 1521 1523 1524 1525 1526 1528 1529 1530 1531 1532 1533 1534 1534 1535 1536 1536 1537 1537 1538 1538 1538 1539 1539 1540 1540 1541 1541 1541 1542 1542 1543
1511 1515 1517 1513 1512 1513 1517 1518 1515 1515 1515 1515 1516 1516 1517 1517 1518 1519 1520 1521 1522 1523 1524 1526 1527 1528 1529 1530 1531 1532 1532 1533 1534 1534 1535 1535 1536 1536 1536 1537 1537 1538 1538 1538 1539 1539 1540 1540 1541
1516 1518 1516 1514 1513 1513 1515 1516 1513 1513 1513 1514 1515 1515 1515 1516 1516 1517 1518 1519 1521 1522 1523 1524 1525 1526 1526 1527 1529 1530 1530 1531 1532 1532 1532 1533 1533 1534 1534 1535 1535 1535 1536 1536 1537 1537 1538 1538 1538
1517 1517 1515 1515 1513 1513 1514 1513 1512 1512 1512 1512 1513 1513 1513 1514 1515 1516 1516 1518 1519 1520 1521 1522 1522 1523 1524 1525 1526 1527 1528 1529 1529 1529 1529 1530 1530 1531 1532 1532 1532 1533 1533 1533 1534 1535 1535 1536 1536
1512 1514 1515 1513 1512 1513 1513 1512 1510 1510 1510 1510 1510 1511 1512 1512 1514 1514 1515 1515 1516 1517 1518 1519 1520 1521 1521 1522 1523 1524 1525 1525 1526 1527 1527 1527 1527 1528 1529 1529 1529 1530 1530 1531 1531 1532 1532 1533 1533
1511 1514 1515 1515 1513 1514 1514 1511 1508 1507 1506 1506 1507 1508 1509 1510 1511 1512 1513 1513 1513 1514 1515 1516 1517 1518 1519 1520 1520 1521 1522 1523 1523 1524 1524 1525 1525 1525 1525 1526 1526 1527 1527 1528 1528 1528 1529 1530 1531
1512 1514 1515 1516 1515 1514 1515 1511 1507 1505 1505 1505 1505 1506 1507 1508 1508 1509 1510 1510 1511 1512 1513 1514 1515 1516 1516 1517 1518 1519 1519 1519 1520 1520 1521 1521 1522 1522 1522 1522 1523 1523 1524 1524 1525 1525 1526 1526 1527
1512 1512 1513 1515 1518 1520 1518 1516 1506 1504 1504 1504 1504 1504 1505 1506 1507 1507 1508 1509 1509 1510 1511 1512 1513 1513 1514 1514 1515 1515 1515 1515 1516 1517 1517 1517 1518 1518 1518 1519 1519 1520 1520 1521 1521 1522 1522 1523 1523
1511 1512 1513 1515 1519 1523 1520 1520 1508 1505 1504 1502 1502 1502 1502 1504 1505 1505 1506 1507 1508 1508 1509 1510 1510 1511 1511 1512 1512 1512 1512 1513 1514 1513 1514 1514 1514 1514 1515 1515 1515 1516 1516 1517 1518 1518 1519 1519 1520
1511 1513 1516 1519 1522 1521 1518 1520 1508 1505 1500 1499 1498 1499 1500 1501 1503 1503 1504 1505 1506 1506 1507 1507 1507 1508 1508 1509 1509 1509 1509 1510 1510 1509 1510 1510 1510 1510 1511 1512 1512 1512 1512 1513 1513 1514 1514 1515 1516
1512 1517 1523 1522 1524 1517 1516 1516 1507 1499 1497 1496 1495 1496 1497 1499 1500 1501 1502 1502 1503 1504 1504 1504 1505 1505 1506 1506 1506 1506 1506 1506 1506 1506 1506 1506 1506 1506 1506 1507 1508 1508 1508 1509 1509 1510 1510 1511 1511
1514 1515 1521 1522 1520 1517 1518 1514 1502 1498 1496 1494 1494 1495 1496 1497 1498 1499 1500 1500 1501 1502 1502 1502 1502 1502 1503 1503 1503 1503 1503 1503 1503 1503 1503 1503 1502 1502 1503 1504 1504 1504 1504 1504 1505 1505 1505 1506 1506
1514 1517 1517 1523 1525 1524 1516 1511 1501 1496 1495 1494 1494 1494 1495 1495 1496 1497 1498 1498 1499 1499 1500 1500 1500 1499 1499 1500 1500 1500 1500 1500 1500 1500 1499 1499 1498 1499 1499 1500 1499 1500 1500 1500 1500 1500 1500 1501 1501
1512 1514 1521 1523 1520 1517 1514 1513 1501 1495 1494 1494 1493 1493 1493 1494 1495 1495 1496 1496 1497 1497 1498 1498 1497 1497 1497 1497 1497 1497 1497 1496 1496 1496 1496 1495 1495 1495 1496 1495 1495 1495 1495 1495 1496 1495 1496 1496 1496
1514 1516 1517 1521 1521 1519 1516 1504 1492 1491 1490 1492 1492 1492 1493 1493 1493 1493 1494 1494 1495 1495 1495 1495 1494 1494 1494 1493 1494 1494 1493 1493 1493 1492 1492 1492 1491 1491 1491 1491 1491 1491 1490 1491 1491 1491 1491 1491 1491
1510 1511 1515 1516 1518 1520 1518 1503 1490 1490 1489 1489 1490 1491 1492 1492 1492 1492 1492 1492 1492 1492 1492 1492 1491 1491 1491 1491 1491 1490 1490 1489 1489 1488 1488 1488 1487 1487 1487 1486 1486 1486 1486 1486 1486 1486 1486 1485 1485